Regional Weather Roundup
Issued by NWS Grand Forks, ND

Home | Current Version | Previous Version | Text Only | Print | Product List | Glossary Off
Versions: 1 2 3 4 5 6 7 8 9 10 11 12 13 14 15 16 17 18 19 20 21 22 23 24 25 26 27 28 29 30 31 32 33 34 35 36 37 38 39 40 41 42 43 44 45 46 47 48 49 50

000
ASUS43 KFGF 220410
RWRFGF
PRAIRIE TO PINES  WEATHER ROUNDUP
NATIONAL WEATHER SERVICE EASTERN NORTH DAKOTA/GRAND FORKS ND
1100 PM CDT MON AUG 21 2017

 **SATELLITE DATA USED TO AUGMENT SKY COVER AT AUTOMATED STATIONS**
 *****  WEATHER ACROSS EASTERN NORTH DAKOTA  *****

CITY           SKY/WX    TMP DP  RH WIND       PRES   REMARKS
GRAND FORKS    FAIR      56  55  97 NW7       29.98S
GRAND FRKS AFB FAIR      54  52  94 E9        30.00R
DEVILS LAKE    FAIR      58  47  66 NW6       30.06R
FARGO          FAIR      62  54  74 N15       29.98R
WAHPETON ARPT  FAIR      61  52  72 NW10      29.98R
$$

 ***** WEATHER ACROSS CENTRAL AND WESTERN NORTH DAKOTA  *****

CITY           SKY/WX    TMP DP  RH WIND       PRES   REMARKS
BISMARCK       FAIR      58  47  66 W6        30.12R
MINOT          FAIR      60  40  47 W8        30.10R
JAMESTOWN      FAIR      56  48  74 NW10      30.05R
MINOT AFB        N/A     48  41  76 W7        30.09R
GARRISON         N/A     49  42  77 NW7       30.12R
WILLISTON      FAIR      58  37  45 CALM      30.16R
DICKINSON      FAIR      56  38  50 CALM      30.16R
HETTINGER      FAIR      49  40  71 W3        30.19R
$$

 *****  OTHER AIRPORT OBSERVATIONS IN OUR AREA  *****

CITY           SKY/WX    TMP DP  RH WIND       PRES   REMARKS
WALHALLA       FAIR      55  55 100 W5        29.99S
GRAFTON AIRPOR FAIR      55  54  94 NW5       30.01R
VALLEY CITY AR   N/A     55  55 100 NW7       30.05R
CANDO          FAIR      50  50 100 NW5       30.07R
CAVALIER APRT  FAIR      52  50  93 W5        29.98S
GWINNER        CLEAR     61  54  77 NW9       30.02R
SHEYENNE NWR     N/A     63  51  66 N7        29.95S
ROLLA          FAIR      50  45  81 W8        30.07R
 ***** THE ABOVE OBSERVATIONS ARE NON NWS ARE NOT QUALITY
       CONTROLLED AND MAY MIS-REPORT RAIN FOR SNOW...
$$

  *****  WEATHER ACROSS NORTHERN MINNESOTA  *****

CITY           SKY/WX    TMP DP  RH WIND       PRES   REMARKS
FLAG ISLAND    FAIR      57  55  94 W5        29.91S FOG
WARROAD        FAIR      54  52  94 W6        29.94S
ROSEAU           N/A     55  50  82 NW5       29.95R
HALLOCK        FAIR      54  52  94 NW3       29.97S
THF RVR FALLS  FAIR      56  52  86 NW10      29.98R
BAUDETTE       MOCLDY    57  56  96 N6        29.90S
WASKISH        FAIR      57  57 100 NW10      29.90R
CROOKSTON      FAIR      57  54  88 N10       29.98R
STEPHEN NDAWN    N/A     52  50  93 W3          N/A
GREENBUSH NDAW   N/A     50  48  93 W3          N/A
$$
  *****  WEATHER ACROSS CENTRAL AND WEST MINNESOTA  *****

CITY           SKY/WX    TMP DP  RH WIND       PRES   REMARKS
FOSSTON        FAIR      54  54 100 NW8       29.95S
BEMIDJI        MOCLDY    55  55 100 W5        29.92R
PARK RAPIDS    FAIR      60  58  92 NW13G18   29.92R
ELBOW LAKE     FAIR      62  58  89 NW9       29.95S
WADENA         FAIR      61  57  88 NW5       29.92R
DETROIT LAKES  FAIR      61  55  82 NW12      29.96R
MOORHEAD       FAIR      61  52  72 N13G20    29.99R
FERGUS FALLS   FAIR      61  61 100 NW9       29.95R
MORRIS MN      FAIR      64  59  82 NW12      29.94R
STAPLES        MOCLDY    63  59  88 NW7       29.92R
$$
  *****  WEATHER ELSEWHERE ACROSS MINNESOTA  *****

CITY           SKY/WX    TMP DP  RH WIND       PRES   REMARKS
DULUTH         TSTM      57  57 100 NE8       29.85R
INTRNTL FALLS  CLOUDY    52  50  93 NW5       29.88R
ELY            LGT RAIN  55  54  94 CALM      29.86S
CLOQUET        LGT RAIN  61  57  88 N6        29.85R
WHEATON        FAIR      63  55  77 W8        29.98S
BRAINERD       MOCLDY    63  60  90 NW8       29.88R
HIBBING        CLOUDY    55  54  96 NW6       29.87R
ALEXANDRIA     FAIR      64  59  83 NW10      29.95R
SAINT CLOUD    FAIR      68  64  87 W13       29.87S
MINNEAPOLIS    CLOUDY    70  64  81 W14       29.87R
$$

  *****  WEATHER ACROSS SOUTH DAKOTA  *****

CITY           SKY/WX    TMP DP  RH WIND       PRES   REMARKS
SIOUX FALLS    FAIR      63  63 100 CALM      30.01R
BROOKINGS      FAIR      62  60  93 CALM      30.02R
WATERTOWN      FAIR      63  56  78 NW12      30.01R
HURON          FAIR      61  55  81 NW7       30.04R
SISSETON         N/A     62  56  80 NW12      29.98R
ABERDEEN       FAIR      59  51  75 N10       30.05R
MITCHELL       FAIR      65  62  90 NW9       30.04R
PIERRE         FAIR      64  47  53 N13       30.09R
MOBRIDGE       FAIR      60  47  61 N10       30.09R
RAPID CITY     FAIR      58  40  51 NE9       30.20R
$$

  *****  SOME WEATHER IN NEARBY STATES *****

CITY           SKY/WX    TMP DP  RH WIND       PRES   REMARKS
GLASGOW MT     FAIR      61  30  31 NE9       30.15
GREAT FALLS MT FAIR      67  33  28 E12       30.16R
CHEYENNE WY    FAIR      61  44  53 E7        30.33R
SCOTTSBLUFF NE FAIR      62  50  64 NE8       30.21R
OMAHA NE       TSTM      67  63  87 SE7       30.00R
DES MOINES IA  CLOUDY    67  65  93 S9        29.96F
DAVENPORT IA   FAIR      73  71  93 S10       29.93F
CHICAGO IL     CLOUDY    78  68  71 SW9       29.91F
EAU CLAIRE WI  FAIR      67  63  87 SW7       29.85F
LA CROSSE WI   FAIR      69  66  90 CALM      29.89R
$$

  *****  SOME NATIONAL WEATHER *****

CITY           SKY/WX    TMP DP  RH WIND       PRES   REMARKS
LA GUARDIA NY  FAIR      79  71  76 SW7       30.09S
RALEIGH NC     FAIR      77  71  82 S3        30.18F
ATLANTA GA     FAIR      80  71  74 S9        30.19R
NEW ORLEANS LA MOCLDY    80  75  84 CALM      30.11S
OKLAHOMA CITY  FAIR      77  71  82 S9        30.04R
ALBUQUERQUE NM MOCLDY    72  57  59 SE7       30.23R
SALT LAKE CITY FAIR      79  49  34 SE3       30.12R
LOS ANGELES CA FAIR      69  62  78 W12       29.97R
BOISE ID       FAIR      77  44  30 CALM      30.05R
SEATTLE WA     FAIR      72  52  49 N8        30.01S
$$

*** WEATHER ACROSS MANITOBA...SASKATCHEWAN AND ONTARIO ***
                ***ONTARIO***

CITY           SKY/WX    TMP DP  RH WIND       PRES   REMARKS
GERALDTON      LGT RAIN  59  55  88 W5        29.83F
THUNDER BAY    LGT RAIN  59  54  82 W6        29.84R
SIOUX LOOKOUT  SHOWER    55  52  88 NW9G18    29.86F
TORONTO        MOCLDY    75  66  73 S5        29.97F
BIG TROUT LK   CLEAR     52  48  87 NW5       29.75S
PICKLE LAKE    NOT AVBL
DRYDEN         LGT RAIN  55  54  94 W5        29.87F
KENORA         MOCLDY    55  54  94 NW7       29.91S
$$
                *** MANITOBA***

CITY           SKY/WX    TMP DP  RH WIND       PRES   REMARKS
BRANDON        CLEAR     46  43  87 NW10      30.03R
DAUPHIN        CLEAR     52  45  76 W10       30.00R
ISLAND LAKE    MOCLDY    61  52  72 W9        29.81R
PILOT MOUND      N/A     46  43  87 SW7         N/A
THE PAS        MOCLDY    64  46  52 NW13      29.96R
THOMPSON       LGT RAIN  54  52  94 N7        29.91R
WINNIPEG       PTCLDY    54  46  76 W5        29.95F
LYNN LAKE      MOCLDY    54  52  94 MISG      29.96S
CHURCHILL      CLOUDY    46  43  87 NE16      29.97R
GILLAM         DRIZZLE   52  50  93 N20       29.87R
$$
                ***SASKATCHEWAN***

CITY           SKY/WX    TMP DP  RH WIND       PRES   REMARKS
ESTEVAN        PTCLDY    48  37  66 NW7       30.14R
KINDERSLEY     PTCLDY    54  39  58 SE8       30.11S
LLOYDMINSTER   PTCLDY    55  48  76 CALM      30.07F
PRINCE ALBERT  CLEAR     50  41  71 W3        30.08S
REGINA         CLEAR     52  36  54 W6        30.13S
YORKTON        CLEAR     52  43  71 W10       30.07R
N. BATTLEFORD  PTCLDY    54  43  66 SE5       30.10F
LA RONGE       PTCLDY    50  43  76 CALM      30.02R
SASKATOON      CLEAR     50  41  71 CALM      30.12S
SWIFT CURRENT  CLEAR     59  34  38 SE2       30.16S
$$
NOTE: THESE ARE AUTOMATED STATIONS WITH LIMITED QUALITY CONTROL
      "FAIR" INDICATES FEW OR NO CLOUDS BELOW 12,000 FEET WITH NO
      SIGNIFICANT WEATHER AND/OR OBSTRUCTIONS TO VISIBILITY.
      SKY/WX - SKY CONDITION AND SIGNIFICANT WEATHER.
      TMP - AIR TEMPERATURE.    DP   - DEWPOINT TEMPERATURE.
      RH  - RELATIVE HUMIDITY.  PRES - PRESSURE.
      HX  - HEAT INDEX.         WCI  - WIND CHILL INDEX.
$




USA.gov is the U.S. government's official web portal to all federal, state and local government web resources and services.